Location: Unspecified
(35.6961°N, 0.0000°E)
Time: 08:42:15
(UTC+00:00)

S-56A Canister/Altair - Pass Details

Date: 27 May 2019
Orbit: 633 x 2499 km, 38.9° (Epoch: 25 June)

Event Time Altitude Azimuth Distance (km) Brightness Sun altitude
Rises 08:22:13 0° 277° (W) 5,095 11.3 41.3°
Reaches altitude 10° 08:26:57 10° 259° (W) 4,425 11.1 42.2°
Maximum altitude 08:34:04 17° 224° (SW) 4,213 11.2 43.7°
Drops below altitude 10° 08:42:10 10° 189° (S) 5,076 11.8 45.3°
Sets 08:48:24 0° 173° (S) 6,162 12.3 46.6°
